Montrose, CO

3:30 PM MDT on August 24, 2016 (GMT -0600)
Montrose Regional

Weather History for KMTJ - July, 2013

Change the Weather History Date:

Wednesday, July 3, 2013

  Actual Average Record
Temperature  
Mean Temperature 75 °F 73 °F  
Max Temperature 93 °F 90 °F 100 °F (2007)
Min Temperature 57 °F 56 °F 48 °F (1997)
Degree Days  
Heating Degree Days 0 0  
Month to date heating degree days 0 0  
Since 1 June heating degree days 9 39  
Since 1 July heating degree days 0 0  
Cooling Degree Days 10 8  
Month to date cooling degree days 34 23  
Year to date cooling degree days 298 175  
Since 1 June cooling degree days 273 158  
Growing Degree Days 24 (Base 50)    
Moisture  
Dew Point 38 °F    
Average Humidity 32    
Maximum Humidity 51    
Minimum Humidity 12    
Precipitation  
Precipitation T in 0.02 in 0.02 in (2015)
Month to date precipitation T 0.07  
Year to date precipitation 2.65 5.14  
Sea Level Pressure  
Sea Level Pressure 29.88 in    
Wind  
Wind Speed 7 mph (SE)    
Max Wind Speed 32 mph    
Max Gust Speed 46 mph    
Visibility 8 miles    
Events Rain    
T = Trace of Precipitation, MM = Missing Value Source: NWS Daily Summary

Daily Weather History Graph

Daily Weather History Graph

Search for Another Location

Airport or City:

Trip Planner

Search our weather history database for the weather conditions in past years. The results will help you decide how hot, cold, wet, or windy it might be!

Date:

Astronomy

Jul. 03, 2013 Rise Set
Actual Time 5:52 AM MDT 8:39 PM MDT
Civil Twilight 5:20 AM MDT 9:10 PM MDT
Nautical Twilight 4:41 AM MDT 9:50 PM MDT
Astronomical Twilight 3:56 AM MDT 10:35 PM MDT
Moon 2:30 AM MDT (7/3) 4:53 PM MDT (7/3)
Length of Visible Light 15h 50m
Length of Day
14h 47m
Waning Crescent, 18% of the Moon is Illuminated
Jul 3
Waning Crescent
Jul 8
New
Jul 15
First Quarter
Jul 22
Full
Jul 29
Last Quarter

Hourly Weather History & Observations

Time (MDT) Temp. Dew Point Humidity Pressure Visibility Wind Dir Wind Speed Gust Speed Precip Events Conditions
12:53 AM 64.9 °F 41.0 °F 42% 29.87 in 10.0 mi SSE 8.1 mph - N/A   Clear
1:53 AM 66.0 °F 37.9 °F 36% 29.86 in 10.0 mi SE 10.4 mph - N/A   Clear
2:53 AM 63.0 °F 39.0 °F 41% 29.87 in 10.0 mi SSE 6.9 mph - N/A   Clear
3:53 AM 61.0 °F 39.0 °F 44% 29.87 in 10.0 mi SE 9.2 mph - N/A   Clear
4:53 AM 59.0 °F 39.9 °F 49% 29.88 in 10.0 mi SE 5.8 mph - N/A   Clear
5:53 AM 57.0 °F 39.9 °F 53% 29.90 in 10.0 mi South 6.9 mph - N/A   Clear
6:53 AM 59.0 °F 39.9 °F 49% 29.91 in 10.0 mi SSE 4.6 mph - N/A   Clear
7:53 AM 66.9 °F 39.9 °F 37% 29.92 in 10.0 mi ESE 6.9 mph - N/A   Clear
8:53 AM 73.0 °F 44.1 °F 35% 29.90 in 10.0 mi Variable 3.5 mph - N/A   Clear
9:53 AM 77.0 °F 43.0 °F 30% 29.89 in 10.0 mi SSW 5.8 mph - N/A   Clear
10:53 AM 82.0 °F 39.0 °F 22% 29.88 in 10.0 mi Calm Calm - N/A   Clear
11:53 AM 84.9 °F 41.0 °F 21% 29.86 in 10.0 mi West 6.9 mph - N/A   Clear
12:53 PM 86.0 °F 33.1 °F 15% 29.86 in 10.0 mi SW 5.8 mph - N/A   Clear
1:53 PM 90.0 °F 30.9 °F 12% 29.82 in 10.0 mi WNW 10.4 mph 20.7 mph N/A   Clear
2:53 PM 91.0 °F 33.1 °F 13% 29.80 in 10.0 mi West 12.7 mph - N/A   Clear
3:53 PM 90.0 °F 33.1 °F 13% 29.77 in 10.0 mi West 9.2 mph - N/A   Clear
4:53 PM 90.0 °F 34.0 °F 14% 29.75 in 10.0 mi West 5.8 mph - N/A   Clear
5:32 PM 89.6 °F 30.2 °F 12% 30.02 in 1.2 mi North 28.8 mph 39.1 mph N/A   Haze
5:39 PM 87.8 °F 35.6 °F 16% 30.02 in 0.2 mi North 26.5 mph 46.0 mph N/A   Haze
5:53 PM 86.0 °F 35.1 °F 16% 29.79 in 0.5 mi North 31.1 mph 43.7 mph N/A   Haze
6:03 PM 84.2 °F 37.4 °F 19% 30.05 in 1.2 mi NNE 26.5 mph 41.4 mph N/A   Haze
6:05 PM 84.2 °F 37.4 °F 19% 30.05 in 2.5 mi NNE 21.9 mph 41.4 mph N/A   Haze
6:12 PM 82.4 °F 37.4 °F 20% 30.05 in 6.0 mi NNE 23.0 mph 39.1 mph N/A   Haze
6:53 PM 82.9 °F 37.0 °F 19% 29.81 in 10.0 mi NNE 10.4 mph 17.3 mph 0.00 in Rain Light Rain
7:53 PM 80.1 °F 41.0 °F 25% 29.81 in 10.0 mi Calm Calm - 0.00 in   Clear
8:53 PM 80.1 °F 37.0 °F 21% 29.81 in 10.0 mi Calm Calm - N/A   Clear
9:53 PM 77.0 °F 42.1 °F 29% 29.83 in 10.0 mi Calm Calm - N/A   Mostly Cloudy
10:53 PM 80.1 °F 37.9 °F 22% 29.81 in 10.0 mi ESE 13.8 mph 21.9 mph N/A   Mostly Cloudy
11:53 PM 75.9 °F 39.9 °F 27% 29.83 in 10.0 mi East 4.6 mph - N/A   Mostly Cloudy